STARLETTE 1 07646U 75010A 19051.94219083 -.00000144 00000-0 -22721-5 0 9998 2 07646 49.8242 215.9068 0205683 232.2698 125.9396 13.82305804224761 LAGEOS 1 1 08820U 76039A 19051.83982198 -.00000000 00000-0 00000-0 0 9998 2 08820 109.8620 343.6102 0044532 154.8758 51.4329 6.38664972742728 AJISAI (EGS) 1 16908U 86061A 19051.92486546 -.00000086 00000-0 78868-4 0 9991 2 16908 50.0093 87.3920 0011394 215.8667 212.0661 12.44489315147657 LAGEOS 2 1 22195U 92070B 19051.65299637 -.00000009 00000-0 00000-0 0 9990 2 22195 52.6474 156.3057 0138832 98.3519 38.7292 6.47294041622554 STELLA 1 22824U 93061B 19052.19922722 -.00000045 00000-0 67345-6 0 9999 2 22824 98.9090 27.3708 0007386 68.1044 353.4251 14.27376088323602 LARES 1 38077U 12006A 19051.75773058 -.00000032 00000-0 40321-4 0 9992 2 38077 69.4934 178.6935 0007168 36.4363 323.7129 12.54931186321753